Location: *
(10.5081°N, 66.9194°W)
Time: 03:29:28
(UTC+00:00)

STARLINK-1161 - Pass Details

Date: 30 March 2020
Orbit: 548 x 551 km, 53.0° (Epoch: 25 May)

Event Time Altitude Azimuth Distance (km) Brightness Sun altitude
Rises 22:44:43 0° 316° (NW) 2,701 8.0 -2.4°
Reaches altitude 10° 22:47:00 10° 310° (NW) 1,808 7.2 -2.9°
Maximum altitude 22:50:56 46° 236° (WSW) 739 4.8 -3.9°
Drops below altitude 10° 22:54:53 10° 163° (SSE) 1,809 6.0 -4.9°
Enters shadow 23:00:15 -9° 153° (SSE) 3,920 7.6 -6.2°
